x

Nantucket Sound (44020) Wave Buoy

2:50am - Fri 29th Jul 2016 All times are EDT. -4 hours from GMT.

  • Sig Wave height 0.3ft
  • Average Period 3s
  • Wind
    7mph
  • Sea Temp 74°f
  • Air Temp 74°f
  • Sea Pressure 1011.3mb
  • Nantucket Sound
  • Nantucket Sound

More Historic Weather Station data

Upgrade to MSW Pro to gain access to the past 30 days of data for over 8000 Wavebouys and Weather Stations around the globe.

Join Pro

Comparision Forecast

View Surf forecast
   
Fri 07/29 2:50am 0.3ft  -  3s 7
mph
1011.3mb 74f 74f
1:50am 0.3ft  -  3s 9
mph
1011.8mb 74f 73f
12:50am 0.7ft  -  3s 7 9 mph 1011.8mb 73f 74f
Thu 07/28 11:50pm 0.7ft  -  3s 9
mph
1011.9mb 74f 73f
10:50pm 0.7ft  -  3s 9
mph
1012.2mb 75f 74f
9:50pm 0.7ft  -  3s 11
mph
1012mb 75f 75f
8:50pm 1ft 3s 3s 11 13 mph 1011.8mb 75f 75f
7:50pm 1ft 3s 3s 13 16 mph 1011.9mb 75f 74f
6:50pm 1ft 3s 3s 13 16 mph 1011.9mb 75f 74f
5:50pm 1ft 3s 3s 13 16 mph 1011.4mb 75f 74f
4:50pm 0.7ft  -  3s 11 13 mph 1011.4mb 75f 75f
3:50pm 0.7ft  -  3s 11 13 mph 1011.7mb 76f 75f
2:50pm 0.7ft  -  3s 13 16 mph 1012.2mb 76f 75f
1:50pm 1ft 2s 3s 13 16 mph 1012.3mb 75f 75f
12:50pm 1ft 2s 3s 13 16 mph 1012.6mb 74f 75f
11:50am 1ft 3s 3s 13
mph
1013mb 74f 75f
10:50am 1ft 3s 3s 13 16 mph 1013.1mb 74f 75f
9:50am 1ft 3s 3s 13 16 mph 1013mb 75f 74f
8:50am 1ft 3s 3s 13 16 mph 1013mb 75f 74f
7:50am 1ft 2s 3s 13
mph
1012.8mb 75f 74f
6:50am 1ft 2s 3s 13 16 mph 1012.7mb 74f 74f
5:50am 0.7ft  -  3s 11 13 mph 1012.5mb 74f 74f
4:50am 0.7ft  -  3s 13
mph
1012.1mb 75f 74f
3:50am 0.7ft  -  3s 13 16 mph 1012.1mb 75f 74f
2:50am 0.7ft  -  3s 13 16 mph 1012.4mb 75f 74f
1:50am 0.7ft  -  3s 11 13 mph 1012.5mb 74f 75f
12:50am 0.7ft  -  3s 13
mph
1012.5mb 74f 75f
Wed 07/27 11:50pm 0.7ft  -  3s 11 13 mph 1012.9mb 73f 75f
10:50pm 0.7ft  -  3s 11 13 mph 1012.7mb 73f 75f
9:50pm 0.7ft  -  3s 11 13 mph 1012.5mb 74f 74f
8:50pm 0.7ft  -  3s 11 13 mph 1012.4mb 75f 75f
7:50pm 1ft 2s 3s 11
mph
1012.2mb 75f 75f
6:50pm 1ft 5s 3s 9 11 mph 1012.2mb 75f 75f
5:50pm 0.7ft  -  4s 9 11 mph 1012.3mb 75f 76f
4:50pm 0.7ft  -  4s 9
mph
1012.5mb 76f 76f
3:50pm 0.7ft  -  4s 2 4 mph 1012.9mb 76f 76f
2:50pm 0.7ft  -  4s 4 7 mph 1012.8mb 76f 76f
1:50pm 0.7ft  -  3s 4
mph
1013.1mb 78f 78f
12:50pm 0.7ft  -  3s 4
mph
1013.1mb 77f 77f
11:50am 0.7ft  -  4s 2
mph
1013.1mb 75f 76f
10:50am 0.7ft  -  3s 4
mph
1013.2mb 73f 75f
9:50am 1ft 3s 3s 7 9 mph 1012.9mb 74f 75f
8:50am 1ft 4s 3s 9
mph
1013mb 74f 75f
7:50am 1ft 3s 3s 11 13 mph 1012.5mb 75f 75f
6:50am 1ft 3s 3s 11 13 mph 1012.3mb 74f 76f
5:50am 1.3ft 3s 3s 13 16 mph 1012.3mb 74f 76f
4:50am 1ft 3s 3s 13 16 mph 1011.4mb 74f 76f
3:50am 1.3ft 3s 3s 13 16 mph 1011.3mb 74f 77f
2:50am 1ft 3s 3s 11 13 mph 1011.4mb 75f 77f
1:50am 0.7ft  -  3s 11 13 mph 1011.1mb 74f 77f
12:50am 0.7ft  -  3s 4
mph
1011mb 74f 75f
Tue 07/26 11:50pm 0.7ft  -  3s 4
mph
1010.9mb 73f 75f
10:50pm 0.7ft  -  3s 4 7 mph 1010.6mb 73f 76f
9:50pm 1ft 4s 3s 4
mph
1010.4mb 73f 75f
8:50pm 1ft 4s 3s 9
mph
1009.7mb 74f 76f
7:50pm 1.3ft 4s 3s 11 13 mph 1009mb 75f 76f
6:50pm 1.6ft 4s 3s 11 13 mph 1008.8mb 75f 76f
5:50pm 1.6ft 3s 3s 18 22 mph 1008.2mb 75f 76f
4:50pm 1.6ft 3s 3s 20 25 mph 1008mb 74f 76f
3:50pm 1.6ft 3s 3s 20 22 mph 1008mb 75f 76f
2:50pm 1.3ft 3s 3s 20 25 mph 1008.2mb 75f 75f
1:50pm 1.3ft 3s 3s 20 22 mph 1008.5mb 75f 75f
12:50pm 1ft 2s 3s 20 22 mph 1008.8mb 75f 74f
11:50am 1ft 3s 3s 16 18 mph 1009.1mb 74f 75f
10:50am 1.3ft 3s 3s 9 11 mph 1009.3mb 73f 76f
9:50am 1.3ft 3s 3s 13 16 mph 1009.4mb 72f 75f
8:50am 1.3ft 4s 3s 13 16 mph 1009.5mb 73f 74f
7:50am 1.6ft 4s 3s 13 16 mph 1009.5mb 74f 74f
6:50am 1.3ft 3s 3s 16 18 mph 1009.1mb 74f 74f
5:50am 1.3ft 3s 3s 13 16 mph 1008.7mb 74f 74f
4:50am 1.3ft 3s 3s 11 13 mph 1008.4mb 74f 73f
3:50am 1ft 2s 3s 13 16 mph 1007.9mb 74f 74f
2:50am 0.7ft  -  3s 13 16 mph 1007.9mb 74f 74f
1:50am 0.7ft  -  3s 13 16 mph 1008.1mb 75f 74f
12:50am 1ft 3s 3s 13 16 mph 1008.9mb 74f 74f
Mon 07/25 11:50pm 1.6ft 3s 3s 16 18 mph 1008.9mb 73f 74f
10:50pm 1.6ft 3s 3s 18 22 mph 1008.6mb 73f 74f
9:50pm 1.6ft 3s 3s 18 22 mph 1010.1mb 72f 75f
8:50pm 1.6ft 3s 3s 18 20 mph 1010.5mb 73f 75f
7:50pm 1.3ft 3s 3s 16 20 mph 1010mb 74f 74f
6:50pm 1.3ft 3s 3s 18 20 mph 1009.7mb 75f 74f
5:50pm 1.3ft 3s 3s 18 20 mph 1010.3mb 75f 75f
4:50pm 1.3ft 3s 3s 16 20 mph 1010.8mb 75f 75f
3:50pm 1.3ft 3s 3s 16 18 mph 1011.7mb 74f 74f
2:50pm 1.3ft 3s 3s 16 18 mph 1012.2mb 75f 74f
1:50pm 1.3ft 3s 3s 18 20 mph 1012.6mb 75f 74f
12:50pm 1.3ft 3s 3s 20 25 mph 1013.2mb 75f 75f
11:50am 1.3ft 3s 3s 18 20 mph 1013.3mb 75f 74f
10:50am 1ft 2s 3s 18 20 mph 1013.6mb 74f 74f
9:50am 0.7ft  -  3s 16 18 mph 1013.8mb 73f 74f
8:50am 0.7ft  -  3s 11 13 mph 1014.3mb 71f 74f